Location: Peebles
(55.6412°N, 3.1714°W)
Time: 05:20:00
(UTC+01:00)

deb Agena D - Pass Details

Date: 11 July 2022
Orbit: 797 x 980 km, 99.8° (Epoch: 16 August)

Event Time Altitude Azimuth Distance (km) Brightness Sun altitude
Rises 01:43:17 0° 15° (NNE) 3,409 11.3 -12.0°
Reaches altitude 10° 01:47:07 10° 347° (NNW) 2,509 9.9 -12.0°
Maximum altitude 01:49:16 12° 324° (NW) 2,363 9.2 -11.9°
Drops below altitude 10° 01:51:27 10° 301° (WNW) 2,553 9.0 -11.9°
Sets 01:55:27 0° 274° (W) 3,535 9.4 -11.8°
